timestamp,surface_pressure_avg,surface_temp_avg,battery_voltage,lat,long
2022-02-17 00:09:01+00:00,345.7296,1.6,12.57,47.84626,-54.09684
2022-02-17 00:19:00+00:00,342.36800000000005,1.48,12.57,47.84626,-54.09684
2022-02-17 00:29:00+00:00,337.2147,1.35,12.57,47.84626,-54.09684
2022-02-17 00:39:00+00:00,334.788,1.46,12.57,47.84626,-54.09684
2022-02-17 00:49:00+00:00,329.6063,2.07,12.57,47.84626,-54.09684
2022-02-17 00:59:00+00:00,324.7397,2.2,12.57,47.84626,-54.09684
2022-02-17 01:09:00+00:00,322.8947,2.08,12.57,47.84626,-54.09684
2022-02-17 01:19:00+00:00,319.758,1.88,12.57,47.84626,-54.09684
2022-02-17 01:29:00+00:00,314.0714,2.18,12.57,47.84626,-54.09684
2022-02-17 01:39:00+00:00,307.313,2.2,12.57,47.84626,-54.09684
2022-02-17 01:49:00+00:00,306.548,2.2,12.57,47.84626,-54.09684
2022-02-17 01:59:00+00:00,304.9597,2.2,12.57,47.84626,-54.09684
2022-02-17 02:09:00+00:00,296.0914,2.2,12.57,47.84626,-54.09684
2022-02-17 02:19:00+00:00,286.3264,2.2,12.49,47.84626,-54.09684
2022-02-17 02:29:00+00:00,282.9781,2.2,12.49,47.84626,-54.09684
2022-02-17 02:39:00+00:00,281.0731,2.2,12.49,47.84626,-54.09684
2022-02-17 02:49:00+00:00,275.0064,2.16,12.49,47.84626,-54.09684
2022-02-17 02:59:00+00:00,267.8847,2.1,12.49,47.84626,-54.09684
2022-02-17 03:09:00+00:00,264.6881,2.1,12.49,47.84626,-54.09684
2022-02-17 03:19:01+00:00,263.1997,2.0,12.49,47.84626,-54.09684
2022-02-17 03:29:01+00:00,257.0681,1.76,12.49,47.84626,-54.09684
2022-02-17 03:39:01+00:00,249.1998,1.5,12.49,47.84626,-54.09684
2022-02-17 03:49:01+00:00,245.0181,1.37,12.49,47.84626,-54.09684
2022-02-17 03:59:01+00:00,239.8581,1.31,12.49,47.84626,-54.09684
2022-02-17 04:09:01+00:00,226.1097,1.3,12.49,47.84626,-54.09684
2022-02-17 04:19:00+00:00,216.8081,1.38,12.49,47.84626,-54.09684
2022-02-17 04:29:00+00:00,214.0464,1.4,12.49,47.84626,-54.09684
2022-02-17 04:39:00+00:00,209.7714,1.4,12.49,47.84626,-54.09684
2022-02-17 04:49:00+00:00,203.6564,1.2,12.49,47.84626,-54.09684
2022-02-17 04:59:00+00:00,201.5198,1.12,12.49,47.84626,-54.09684
2022-02-17 05:09:00+00:00,202.8198,1.12,12.49,47.84626,-54.09684
2022-02-17 05:19:00+00:00,200.0798,1.19,12.49,47.84626,-54.09684
2022-02-17 05:29:00+00:00,194.4048,1.17,12.49,47.84626,-54.09684
2022-02-17 05:39:00+00:00,192.1814,1.1,12.49,47.84626,-54.09684
2022-02-17 05:49:00+00:00,191.2131,1.15,12.49,47.84626,-54.09684
2022-02-17 05:59:00+00:00,190.4881,1.2,12.49,47.84626,-54.09684
2022-02-17 06:09:00+00:00,191.6648,1.29,12.49,47.84626,-54.09684
2022-02-17 06:19:00+00:00,193.4631,1.34,12.49,47.84626,-54.09684
2022-02-17 06:29:00+00:00,194.2132,1.38,12.49,47.84626,-54.09684
2022-02-17 06:39:00+00:00,195.5598,1.4,12.49,47.84626,-54.09684
2022-02-17 06:49:00+00:00,199.5698,1.42,12.49,47.84626,-54.09684
2022-02-17 06:59:00+00:00,204.2715,1.5,12.49,47.84626,-54.09684
2022-02-17 07:09:00+00:00,203.6848,1.5,12.49,47.84626,-54.09684
2022-02-17 07:19:01+00:00,206.1115,1.59,12.49,47.84626,-54.09684
2022-02-17 07:29:01+00:00,211.0398,1.6,12.49,47.84626,-54.09684
2022-02-17 07:39:01+00:00,213.4981,1.6,12.49,47.84626,-54.09684
2022-02-17 07:49:01+00:00,218.5498,1.67,12.49,47.84626,-54.09684
2022-02-17 07:59:01+00:00,225.9548,1.69,12.49,47.84626,-54.09684
2022-02-17 08:09:01+00:00,230.7747,1.7,12.49,47.84626,-54.09684
2022-02-17 08:19:01+00:00,232.6747,1.7,12.49,47.84626,-54.09684
2022-02-17 08:29:01+00:00,237.9448,1.7,12.49,47.84626,-54.09684
2022-02-17 08:39:01+00:00,245.3647,1.7,12.49,47.84626,-54.09684
2022-02-17 08:49:01+00:00,250.5297,1.8,12.49,47.84626,-54.09684
2022-02-17 08:59:01+00:00,253.3181,1.9,12.49,47.84626,-54.09684
2022-02-17 09:09:01+00:00,258.1114,1.9,12.49,47.84626,-54.09684
2022-02-17 09:19:01+00:00,264.253,1.8,12.49,47.84626,-54.09684
2022-02-17 09:29:01+00:00,269.093,1.7,12.49,47.84626,-54.09684
2022-02-17 09:39:01+00:00,276.4714,1.6,12.49,47.84626,-54.09684
2022-02-17 09:49:01+00:00,285.0131,1.63,12.49,47.84626,-54.09684
2022-02-17 09:59:01+00:00,290.3481,1.6,12.49,47.84626,-54.09684
2022-02-17 10:09:01+00:00,293.2064,1.55,12.49,47.84626,-54.09684
2022-02-17 10:19:00+00:00,299.4613,1.6,12.49,47.84626,-54.09684
2022-02-17 10:29:00+00:00,304.6613,1.6,12.49,47.84626,-54.09684
2022-02-17 10:39:00+00:00,307.8513,1.62,12.49,47.84626,-54.09684
2022-02-17 10:49:00+00:00,315.598,1.72,12.49,47.84626,-54.09684
2022-02-17 10:59:00+00:00,324.7963,1.8,12.49,47.84626,-54.09684
2022-02-17 11:09:00+00:00,329.7614,1.9,12.49,47.84626,-54.09684
2022-02-17 11:19:00+00:00,337.0797,1.9,12.57,47.84626,-54.09684
2022-02-17 11:29:00+00:00,344.4213,1.96,12.57,47.84626,-54.09684
2022-02-17 11:39:00+00:00,341.9746,2.0,12.57,47.84626,-54.09684
2022-02-17 11:49:00+00:00,341.1946,2.04,12.57,47.84626,-54.09684
2022-02-17 11:59:00+00:00,347.2396,2.18,12.57,47.84626,-54.09684
2022-02-17 12:09:00+00:00,347.4263,2.1,12.57,47.84626,-54.09684
2022-02-17 12:19:00+00:00,342.5146,2.1,12.57,47.84626,-54.09684
2022-02-17 12:29:00+00:00,345.7746,2.1,12.57,47.84626,-54.09684
2022-02-17 12:39:00+00:00,349.1829,2.1,12.57,47.84626,-54.09684
2022-02-17 12:49:00+00:00,345.3712,2.09,12.57,47.84626,-54.09684
2022-02-17 12:59:00+00:00,340.5680000000001,2.05,12.57,47.84626,-54.09684
2022-02-17 13:09:00+00:00,346.00800000000015,2.06,12.57,47.84626,-54.09684
2022-02-17 13:19:00+00:00,346.7112,2.06,12.57,47.84626,-54.09684
2022-02-17 13:29:00+00:00,340.8329,2.0,12.57,47.84626,-54.09684
2022-02-17 13:39:00+00:00,338.0914,2.0,12.57,47.84626,-54.09684
2022-02-17 13:49:00+00:00,340.3013,2.0,12.57,47.84626,-54.09684
2022-02-17 13:59:00+00:00,335.158,1.99,12.57,47.84626,-54.09684
2022-02-17 14:09:00+00:00,325.9613,1.92,12.57,47.84626,-54.09684
2022-02-17 14:19:00+00:00,326.163,1.9,12.57,47.84626,-54.09684
2022-02-17 14:29:00+00:00,326.6431,1.9,12.57,47.84626,-54.09684
2022-02-17 14:39:00+00:00,319.0463,1.9,12.57,47.84626,-54.09684
2022-02-17 14:49:00+00:00,309.8563,1.89,12.57,47.84626,-54.09684
2022-02-17 14:59:00+00:00,304.2697,1.83,12.57,47.84626,-54.09684
2022-02-17 15:09:00+00:00,297.1814,1.8,12.57,47.84626,-54.09684
2022-02-17 15:19:00+00:00,287.7181,1.8,12.57,47.84626,-54.09684
2022-02-17 15:29:00+00:00,276.8114,1.7,12.57,47.84626,-54.09684
2022-02-17 15:39:00+00:00,265.8831,1.7,12.57,47.84626,-54.09684
2022-02-17 15:49:00+00:00,255.638,1.7,12.57,47.84626,-54.09684
2022-02-17 15:59:00+00:00,244.9464,1.7,12.57,47.84626,-54.09684
2022-02-17 16:09:00+00:00,235.2664,1.7,12.57,47.84626,-54.09684
2022-02-17 16:19:00+00:00,226.6581,1.7,12.57,47.84626,-54.09684
2022-02-17 16:29:00+00:00,218.9147,1.7,12.57,47.84626,-54.09684
2022-02-17 16:39:00+00:00,210.6497,1.7,12.57,47.84626,-54.09684
2022-02-17 16:49:00+00:00,202.0364,1.7,12.57,47.84626,-54.09684
2022-02-17 16:59:00+00:00,195.1298,1.7,12.57,47.84626,-54.09684
2022-02-17 17:09:00+00:00,187.438,1.74,12.57,47.84626,-54.09684
2022-02-17 17:19:00+00:00,176.2315,1.79,12.57,47.84626,-54.09684
2022-02-17 17:29:00+00:00,168.6732,1.8,12.57,47.84626,-54.09684
2022-02-17 17:39:00+00:00,165.5081,1.8,12.57,47.84626,-54.09684
2022-02-17 17:49:00+00:00,158.5648,1.76,12.57,47.84626,-54.09684
2022-02-17 17:59:00+00:00,152.8915,1.76,12.57,47.84626,-54.09684
2022-02-17 18:09:00+00:00,153.2115,1.8,12.57,47.84626,-54.09684
2022-02-17 18:19:01+00:00,151.4565,1.8,12.57,47.84626,-54.09684
2022-02-17 18:29:01+00:00,143.9498,1.8,12.57,47.84626,-54.09684
2022-02-17 18:39:01+00:00,140.6798,1.8,12.57,47.84626,-54.09684
2022-02-17 18:49:01+00:00,145.5665,1.8,12.57,47.84626,-54.09684
2022-02-17 18:59:01+00:00,147.1531,1.8,12.57,47.84626,-54.09684
2022-02-17 19:09:01+00:00,146.5049,1.8,12.57,47.84626,-54.09684
2022-02-17 19:19:00+00:00,150.6515,1.8,12.57,47.84626,-54.09684
2022-02-17 19:29:00+00:00,156.2015,1.7,12.57,47.84626,-54.09684
2022-02-17 19:39:00+00:00,160.9732,1.7,12.57,47.84626,-54.09684
2022-02-17 19:49:00+00:00,164.1698,1.7,12.57,47.84626,-54.09684
2022-02-17 19:59:00+00:00,168.0215,1.7,12.57,47.84626,-54.09684
2022-02-17 20:09:00+00:00,173.7198,1.7,12.57,47.84626,-54.09684
2022-02-17 20:19:00+00:00,180.7965,1.7,12.57,47.84626,-54.09684
2022-02-17 20:29:00+00:00,187.2331,1.7,12.57,47.84626,-54.09684
2022-02-17 20:39:00+00:00,192.8331,1.7,12.57,47.84626,-54.09684
2022-02-17 20:49:00+00:00,201.0497,1.75,12.57,47.84626,-54.09684
2022-02-17 20:59:00+00:00,210.9115,1.78,12.57,47.84626,-54.09684
2022-02-17 21:09:00+00:00,215.1898,1.77,12.57,47.84626,-54.09684
2022-02-17 21:19:01+00:00,217.6798,1.7,12.57,47.84626,-54.09684
2022-02-17 21:29:01+00:00,223.8181,1.7,12.57,47.84626,-54.09684
2022-02-17 21:39:01+00:00,232.9631,1.7,12.57,47.84626,-54.09684
2022-02-17 21:49:01+00:00,239.7648,1.69,12.57,47.84626,-54.09684
2022-02-17 21:59:01+00:00,243.6831,1.68,12.57,47.84626,-54.09684
2022-02-17 22:09:01+00:00,250.1414,1.65,12.57,47.84626,-54.09684
2022-02-17 22:19:01+00:00,259.1031,1.6,12.57,47.84626,-54.09684
2022-02-17 22:29:01+00:00,265.6832,1.58,12.57,47.84626,-54.09684
2022-02-17 22:39:01+00:00,273.6147,1.5,12.57,47.84626,-54.09684
2022-02-17 22:49:01+00:00,280.0781,1.5,12.57,47.84626,-54.09684
2022-02-17 22:59:01+00:00,283.0781,1.4,12.57,47.84626,-54.09684
2022-02-17 23:09:01+00:00,288.4397,1.4,12.57,47.84626,-54.09684
2022-02-17 23:19:01+00:00,300.4313,1.46,12.57,47.84626,-54.09684
2022-02-17 23:29:01+00:00,308.0447,1.42,12.57,47.84626,-54.09684
2022-02-17 23:39:01+00:00,311.298,1.4,12.57,47.84626,-54.09684
2022-02-17 23:49:01+00:00,321.0514,1.4,12.57,47.84626,-54.09684
2022-02-17 23:59:01+00:00,328.353,1.4,12.57,47.84626,-54.09684
